Cold Lake, Alberta

10:54 AM MST on February 21, 2017 (GMT -0700)
Cold Lake

Weather History for CYOD - May, 2013

Change the Weather History Date:

Wednesday, May 1, 2013

  Actual Average Record
Temperature  
Mean Temperature 30 °F -  
Max Temperature 43 °F 63 °F 74 °F (2016)
Min Temperature 17 °F 39 °F 17 °F (2013)
Degree Days  
Heating Degree Days 35    
Moisture  
Dew Point 15 °F    
Average Humidity 54    
Maximum Humidity 93    
Minimum Humidity 18    
Precipitation  
Precipitation 0.00 in 0.05 in - ()
Sea Level Pressure  
Sea Level Pressure 30.53 in    
Wind  
Wind Speed 6 mph ()    
Max Wind Speed 13 mph    
Max Gust Speed -    
Visibility 15.0 miles    
Events      
Averages and records for this station are not official NWS values.
T = Trace of Precipitation, MM = Missing Value Source: Averaged Metar Reports

Daily Weather History Graph

Daily Weather History Graph

Search for Another Location

Airport or City:

Trip Planner

Search our weather history database for the weather conditions in past years. The results will help you decide how hot, cold, wet, or windy it might be!

Date:

Astronomy

May. 01, 2013 Rise Set
Actual Time 5:42 AM MDT 8:55 PM MDT
Civil Twilight 5:00 AM MDT 9:37 PM MDT
Nautical Twilight 4:03 AM MDT 10:34 PM MDT
Astronomical Twilight 2:44 AM MDT 11:56 PM MDT
Moon 2:08 AM MDT (5/1) 11:25 AM MDT (5/1)
Length of Visible Light 16h 37m
Length of Day
15h 12m
Waning Gibbous, 58% of the Moon is Illuminated
May 1
Waning Gibbous
May 2
Last Quarter
May 9
New
May 17
First Quarter
May 24
Full

Hourly Weather History & Observations

Time (MDT) Temp. Windchill Dew Point Humidity Pressure Visibility Wind Dir Wind Speed Gust Speed Precip Events Conditions
12:00 AM 26 °F - 16 °F 54% 30.41 in 15 mi NNW 9.2 mph - -   Partly Cloudy
12:00 AM 26.6 °F 17.5 °F 15.8 °F 64% 30.41 in 15.0 mi NNW 9.2 mph - N/A   Mostly Cloudy
1:00 AM 24.8 °F 16.1 °F 15.8 °F 69% 30.44 in 15.0 mi NW 8.1 mph - N/A   Scattered Clouds
2:00 AM 23.0 °F 14.7 °F 15.8 °F 74% 30.45 in 15.0 mi NW 6.9 mph - N/A   Mostly Cloudy
3:00 AM 21.2 °F 12.6 °F 15.8 °F 80% 30.47 in 15.0 mi NW 6.9 mph - N/A   Scattered Clouds
4:00 AM 19.4 °F 11.5 °F 15.8 °F 86% 30.48 in 15.0 mi NW 5.8 mph - N/A   Partly Cloudy
5:00 AM 17.6 °F - 15.8 °F 93% 30.51 in 15.0 mi NNW 2.3 mph - N/A   Partly Cloudy
6:00 AM 18 °F - 14 °F 79% 30.53 in 15 mi Calm Calm - -   Scattered Clouds
6:00 AM 17.6 °F - 14.0 °F 86% 30.53 in 15.0 mi South 2.3 mph - N/A   Partly Cloudy
7:00 AM 19.4 °F 14.3 °F 15.8 °F 86% 30.56 in 15.0 mi West 3.5 mph - N/A   Partly Cloudy
8:00 AM 23.0 °F 18.4 °F 17.6 °F 80% 30.57 in 15.0 mi NNE 3.5 mph - N/A   Partly Cloudy
9:00 AM 26.6 °F - 15.8 °F 64% 30.58 in 15.0 mi NNE 2.3 mph - N/A   Partly Cloudy
10:00 AM 30.2 °F - 12.2 °F 47% 30.58 in 15.0 mi NNE 2.3 mph - N/A   Partly Cloudy
11:00 AM 30.2 °F 25.4 °F 10.4 °F 44% 30.58 in 15.0 mi SE 4.6 mph - N/A   Partly Cloudy
12:00 PM 33 °F - 11 °F 26% 30.58 in 15 mi SW 4.6 mph - -   Scattered Clouds
12:00 PM 33.8 °F 26.4 °F 12.2 °F 41% 30.58 in 15.0 mi SW 9.2 mph - N/A   Partly Cloudy
1:00 PM 33.8 °F 28.6 °F 10.4 °F 38% 30.57 in 15.0 mi South 5.8 mph - N/A   Partly Cloudy
2:00 PM 37.4 °F 31.4 °F 12.2 °F 36% 30.57 in 15.0 mi SW 8.1 mph - N/A   Partly Cloudy
3:00 PM 41.0 °F 34.7 °F 12.2 °F 31% 30.56 in 15.0 mi SSW 10.4 mph - N/A   Partly Cloudy
4:00 PM 42.8 °F 37.5 °F 14.0 °F 31% 30.56 in 15.0 mi SSW 9.2 mph - N/A   Partly Cloudy
5:00 PM 42.8 °F 36.2 °F 14.0 °F 31% 30.55 in 15.0 mi SW 12.7 mph - N/A   Partly Cloudy
6:00 PM 43 °F - 14 °F 18% 30.55 in 15 mi SW 9.2 mph - -   Scattered Clouds
6:00 PM 42.8 °F 38.0 °F 14.0 °F 31% 30.55 in 15.0 mi WSW 8.1 mph - N/A   Partly Cloudy
7:00 PM 42.8 °F 36.6 °F 15.8 °F 34% 30.54 in 15.0 mi SW 11.5 mph - N/A   Scattered Clouds
8:00 PM 41.0 °F 35.8 °F 17.6 °F 39% 30.52 in 15.0 mi South 8.1 mph - N/A   Mostly Cloudy
9:00 PM 37.4 °F 31.4 °F 17.6 °F 45% 30.51 in 15.0 mi SSE 8.1 mph - N/A   Scattered Clouds
10:00 PM 37.4 °F 30.3 °F 19.4 °F 48% 30.50 in 15.0 mi SE 10.4 mph - N/A   Partly Cloudy
11:00 PM 35.6 °F 28.0 °F 19.4 °F 52% 30.50 in 15.0 mi SE 10.4 mph - N/A   Scattered Clouds